W4SKW Weather Reports


time (UTC)temp
F
wind
direction
speed
knots
gust
knots
rain 1hr
in
rain 24hr
in
rain mn
in
humidity
%
barometer
mb
20260506121820 64 236 0.0 0.0 0.00 0.00 0.00 88 1014.4
20260506121316 64 233 0.0 0.0 0.00 0.00 0.00 88 1014.7
20260506120814 64 240 0.0 0.0 0.00 0.00 0.00 88 1014.8
20260506120311 64 239 0.0 0.0 0.00 0.00 0.00 88 1014.5
20260506115809 64 238 0.0 0.0 0.00 0.00 0.00 88 1014.4
20260506115307 64 238 0.0 0.0 0.00 0.00 0.00 87 1014.3
20260506114804 64 238 0.0 0.0 0.00 0.00 0.00 87 1014.4
20260506114302 64 238 0.0 0.0 0.00 0.00 0.00 88 1014.5
20260506113800 64 238 0.0 0.0 0.00 0.00 0.00 88 1014.5
20260506113257 63 237 0.0 0.0 0.00 0.00 0.00 87 1014.5
20260506112552 63 244 0.0 0.0 0.00 0.00 0.00 87 1014.4
20260506112050 63 244 0.0 0.0 0.00 0.00 0.00 87 1014.4
20260506111547 63 244 0.0 0.0 0.00 0.00 0.00 88 1014.1
20260506111044 63 244 0.0 0.0 0.00 0.00 0.00 88 1014.1
20260506110542 63 244 0.0 0.0 0.00 0.00 0.00 88 1014.1
20260506110039 63 244 0.0 0.0 0.00 0.00 0.00 87 1014.0
20260506105535 63 244 0.0 0.0 0.00 0.00 0.00 87 1013.9
20260506105032 63 244 0.0 0.0 0.00 0.00 0.00 87 1013.7
20260506104530 63 244 0.0 0.0 0.00 0.00 0.00 87 1013.7
20260506104028 63 246 0.0 0.0 0.00 0.00 0.00 87 1013.6
20260506103525 63 246 0.0 0.0 0.00 0.00 0.00 87 1013.6
20260506103021 63 246 0.0 0.0 0.00 0.00 0.00 87 1013.6
20260506102520 63 246 0.0 0.0 0.00 0.00 0.00 86 1013.5
20260506102012 63 246 0.0 0.0 0.00 0.00 0.00 86 1013.6
20260506101508 63 246 0.0 0.0 0.00 0.00 0.00 86 1013.6
20260506101005 63 246 0.0 0.0 0.00 0.00 0.00 86 1013.6
20260506100503 63 246 0.0 0.0 0.00 0.00 0.00 86 1013.7
20260506100001 63 246 0.0 0.0 0.00 0.00 0.00 85 1013.7
20260506095500 63 246 0.0 0.0 0.00 0.00 0.00 85 1013.5
20260506094955 63 246 0.0 0.0 0.00 0.00 0.00 85 1013.6
20260506094454 63 246 0.0 0.0 0.00 0.00 0.00 85 1013.5
20260506093951 63 246 0.0 0.0 0.00 0.00 0.00 85 1013.4
20260506093449 63 246 0.0 0.0 0.00 0.00 0.00 85 1013.2
20260506092947 63 247 0.0 0.0 0.00 0.00 0.00 85 1013.2
20260506092444 63 247 0.0 0.0 0.00 0.00 0.00 84 1013.3
20260506091940 63 247 0.0 0.0 0.00 0.00 0.00 84 1013.1
20260506091439 63 247 0.0 0.0 0.00 0.00 0.00 84 1013.1
20260506090936 63 247 0.0 0.0 0.00 0.00 0.00 84 1013.1
20260506090434 63 247 0.0 0.0 0.00 0.00 0.00 84 1013.2
20260506085930 63 247 0.0 0.0 0.00 0.00 0.00 84 1013.0
20260506085427 62 247 0.0 0.0 0.00 0.00 0.00 84 1012.9
20260506084922 62 247 0.0 0.0 0.00 0.00 0.00 83 1013.1
20260506084419 62 247 0.0 0.0 0.00 0.00 0.00 84 1013.0
20260506083910 62 247 0.0 0.0 0.00 0.00 0.00 85 1012.6
20260506083408 62 247 0.0 0.0 0.00 0.00 0.00 85 1012.7
20260506082905 62 247 0.0 0.0 0.00 0.00 0.00 85 1013.0
20260506082401 62 246 0.0 0.0 0.00 0.00 0.00 85 1013.0
20260506081856 62 246 0.0 0.0 0.00 0.00 0.00 84 1013.0
20260506081338 61 246 0.0 0.0 0.00 0.00 0.00 84 1012.9
20260506080835 61 246 0.0 0.0 0.00 0.00 0.00 84 1012.9
20260506080331 61 247 0.0 0.0 0.00 0.00 0.00 84 1013.1
20260506073518 61 246 0.0 0.0 0.00 0.00 0.00 84 1012.7
20260506073015 61 246 0.0 0.0 0.00 0.00 0.00 84 1012.8
20260506072512 61 246 0.0 0.0 0.00 0.00 0.00 83 1013.0
20260506072010 61 246 0.0 0.0 0.00 0.00 0.00 83 1013.1
20260506071508 61 247 0.0 0.0 0.00 0.00 0.00 82 1013.2
20260506071005 61 247 0.0 0.0 0.00 0.00 0.00 82 1013.2
20260506070502 61 246 0.0 0.0 0.00 0.00 0.00 82 1013.2
20260506062439 62 246 0.0 0.0 0.00 0.00 0.00 80 1013.8
20260506061935 62 245 0.0 0.0 0.00 0.00 0.00 80 1013.7
20260506061432 62 245 0.0 0.0 0.00 0.00 0.00 80 1013.8
20260506060930 63 245 0.0 0.0 0.00 0.00 0.00 80 1013.8
20260506060428 63 245 0.0 0.0 0.00 0.00 0.00 80 1013.8
20260506051244 64 245 0.0 0.0 0.00 0.00 0.00 81 1014.2
20260506050742 64 245 0.0 0.0 0.00 0.00 0.00 81 1013.8
20260506050239 64 245 0.0 0.0 0.00 0.00 0.00 80 1013.9
20260506044730 65 245 0.0 0.0 0.00 0.00 0.00 79 1014.0
20260506044227 65 246 0.0 0.0 0.00 0.00 0.00 79 1014.2
20260506043724 65 246 0.0 0.0 0.00 0.00 0.00 77 1014.3
20260506043221 65 245 0.0 0.0 0.00 0.00 0.00 78 1014.1
20260506042149 65 245 0.0 0.0 0.00 0.00 0.00 78 1013.9
20260506041642 65 245 0.0 0.0 0.00 0.00 0.00 78 1013.9
20260506041138 65 245 0.0 0.0 0.00 0.00 0.00 78 1014.1
20260506040635 65 245 0.0 0.0 0.00 0.00 0.00 78 1014.3
20260506040127 65 245 0.0 0.0 0.00 0.00 0.00 76 1014.4
20260506035624 65 245 0.0 0.0 0.00 0.00 0.00 76 1014.4
20260506035119 65 245 0.0 0.0 0.00 0.00 0.00 76 1014.3
20260506034616 65 245 0.0 0.0 0.00 0.00 0.00 75 1014.4
20260506034108 65 245 0.0 0.0 0.00 0.00 0.00 75 1014.2
20260506033606 65 246 0.0 0.0 0.00 0.00 0.00 74 1013.9
20260506033103 65 246 0.0 0.0 0.00 0.00 0.00 75 1013.7
20260506032600 65 246 0.0 0.0 0.00 0.00 0.00 75 1013.7
20260506032056 65 246 0.0 0.0 0.00 0.00 0.00 76 1013.5
20260506031554 65 246 0.0 0.0 0.00 0.00 0.00 75 1013.7
20260506031051 65 246 0.0 0.0 0.00 0.00 0.00 75 1013.7
20260506030549 65 246 0.0 0.0 0.00 0.00 0.00 76 1013.7
20260506030046 65 246 0.0 0.0 0.00 0.00 0.00 74 1014.1
20260506025543 65 246 0.0 0.0 0.00 0.00 0.00 76 1014.2
20260506025038 65 246 0.0 0.0 0.00 0.00 0.00 76 1014.3
20260506024536 65 246 0.0 0.0 0.00 0.00 0.00 75 1014.2
20260506024032 65 246 0.0 0.0 0.00 0.00 0.00 74 1014.2
20260506023528 65 246 0.0 0.0 0.00 0.00 0.00 75 1014.2
20260506023026 65 246 0.0 0.0 0.00 0.00 0.00 74 1014.3
20260506022523 65 246 0.0 0.0 0.00 0.00 0.00 71 1014.1
20260506022020 66 246 0.0 0.0 0.00 0.00 0.00 72 1014.1
20260506021517 66 246 0.0 0.0 0.00 0.00 0.00 72 1013.8
20260506020743 66 243 0.0 0.0 0.00 0.00 0.00 73 1013.7
20260506020241 66 243 0.0 0.0 0.00 0.00 0.00 73 1013.7
20260506015738 66 243 0.0 0.0 0.00 0.00 0.00 73 1014.0
20260506015235 66 243 0.0 0.0 0.00 0.00 0.00 72 1013.9
20260506014732 66 243 0.0 0.0 0.00 0.00 0.00 70 1013.9
20260506014228 66 242 0.0 0.0 0.00 0.00 0.00 71 1013.8
20260506013726 66 240 0.0 0.0 0.00 0.00 0.00 72 1013.9
20260506013223 66 238 0.0 0.0 0.00 0.00 0.00 73 1013.7
20260506012719 67 238 0.0 0.0 0.00 0.00 0.00 72 1013.8
20260506012216 66 243 0.0 0.0 0.00 0.00 0.00 69 1013.8
20260506011604 67 241 0.0 0.0 0.00 0.00 0.00 70 1013.8
20260506011059 67 241 0.0 0.0 0.00 0.00 0.00 70 1013.8
20260506010554 67 241 0.0 0.0 0.00 0.00 0.00 69 1013.5
20260506010050 67 240 0.0 0.0 0.00 0.00 0.00 71 1013.6
20260506005547 67 240 0.0 0.0 0.00 0.00 0.00 70 1013.6
20260506005043 67 244 0.0 0.0 0.00 0.00 0.00 66 1013.5
20260506004541 67 244 0.0 0.0 0.00 0.00 0.00 66 1013.5
20260506004037 67 244 0.0 0.0 0.00 0.00 0.00 66 1013.5
20260506003533 67 242 0.0 0.0 0.00 0.00 0.00 70 1013.5
20260506003029 67 243 0.0 0.0 0.00 0.00 0.00 69 1013.5
20260506002520 68 242 0.0 0.0 0.00 0.00 0.00 67 1013.3
20260506002016 68 242 0.0 0.0 0.00 0.00 0.00 64 1013.3
20260506001513 68 241 0.0 0.0 0.00 0.00 0.00 64 1013.4
20260506001010 68 240 0.0 0.0 0.00 0.00 0.00 65 1013.5
20260506000508 69 232 0.0 0.0 0.00 0.00 0.00 63 1013.4
20260506000005 69 230 0.0 0.0 0.00 0.00 0.00 64 1013.4
20260505235503 69 225 0.0 0.0 0.00 0.00 0.00 62 1013.5
20260505234959 69 229 0.0 0.0 0.00 0.00 0.00 62 1013.5
20260505234456 70 231 0.0 0.0 0.00 0.00 0.00 62 1013.6
20260505233953 70 244 0.0 0.0 0.00 0.00 0.00 60 1013.5
20260505233451 70 226 0.0 0.0 0.00 0.00 0.00 62 1013.5
20260505232947 70 220 0.0 0.0 0.00 0.00 0.00 61 1013.7
20260505231744 72 203 0.0 0.0 0.00 0.00 0.00 60 1013.8
20260505231243 72 203 0.0 0.0 0.00 0.00 0.00 60 1013.8
20260505230741 72 267 0.0 0.0 0.00 0.00 0.00 64 1013.5
20260505230237 73 281 0.0 0.0 0.00 0.00 0.00 59 1013.7
20260505225734 73 237 0.0 0.0 0.00 0.00 0.00 61 1013.5
20260505225231 74 257 0.0 0.0 0.00 0.00 0.00 50 1013.5
20260505224726 73 227 0.0 0.0 0.00 0.00 0.00 59 1013.5
20260505224224 73 241 0.0 0.0 0.00 0.00 0.00 59 1013.6
20260505223722 72 223 0.0 0.0 0.00 0.00 0.00 62 1013.6
20260505223218 71 221 0.0 0.0 0.00 0.00 0.00 64 1013.9
20260505222714 72 235 0.0 0.0 0.00 0.00 0.00 60 1013.9
20260505222210 72 234 0.0 0.0 0.00 0.00 0.00 59 1013.8
20260505221708 73 235 0.0 0.0 0.00 0.00 0.00 62 1013.7
20260505221204 72 222 0.0 0.0 0.00 0.00 0.00 62 1013.5
20260505220701 72 222 0.0 0.0 0.00 0.00 0.00 62 1013.5
20260505220159 72 242 0.0 0.0 0.00 0.00 0.00 64 1013.7
20260505215656 72 219 0.0 0.0 0.00 0.00 0.00 59 1013.9
20260505215154 73 221 0.0 0.0 0.00 0.00 0.00 58 1013.9
20260505214652 73 215 0.0 0.0 0.00 0.00 0.00 58 1014.0
20260505214149 73 204 0.0 0.0 0.00 0.00 0.00 62 1014.0
20260505213646 73 254 0.0 0.0 0.00 0.00 0.00 58 1014.2
20260505213143 73 293 0.0 0.0 0.00 0.00 0.00 53 1014.1
20260505212638 73 222 0.0 0.0 0.00 0.00 0.00 63 1013.9
20260505212136 75 260 0.0 0.0 0.00 0.00 0.00 45 1014.0
20260505211633 74 236 0.0 0.0 0.00 0.00 0.00 61 1013.9
20260505211131 75 207 0.0 0.0 0.00 0.00 0.00 57 1013.9
20260505210627 76 335 0.9 2.6 0.00 0.00 0.00 48 1013.6
20260505210124 76 281 0.0 0.0 0.00 0.00 0.00 46 1013.7
20260505205621 77 282 0.0 0.9 0.00 0.00 0.00 44 1013.7
20260505205119 77 94 0.0 0.0 0.00 0.00 0.00 57 1013.9
20260505204616 78 261 0.9 1.7 0.00 0.00 0.00 42 1014.0
20260505204114 78 244 3.5 3.5 0.00 0.00 0.00 42 1014.1
20260505203610 78 330 3.5 3.5 0.00 0.00 0.00 42 1014.1
20260505203107 79 301 0.9 2.6 0.00 0.00 0.00 42 1014.2
20260505202603 80 349 3.5 5.2 0.00 0.00 0.00 42 1014.1
20260505202059 80 270 1.7 2.6 0.00 0.00 0.00 39 1014.4
20260505201556 80 270 1.7 2.6 0.00 0.00 0.00 39 1014.4
20260505201054 80 304 0.0 0.0 0.00 0.00 0.00 41 1014.3
20260505200551 80 258 0.9 1.7 0.00 0.00 0.00 40 1014.4
20260505200048 80 292 1.7 1.7 0.00 0.00 0.00 41 1014.6
20260505195544 80 288 0.0 0.9 0.00 0.00 0.00 44 1014.5
20260505195042 80 263 0.9 1.7 0.00 0.00 0.00 41 1014.6
20260505194539 80 254 0.0 0.9 0.00 0.00 0.00 58 1014.6
20260505194034 80 254 0.0 0.0 0.00 0.00 0.00 43 1014.7
20260505193532 79 320 1.7 3.5 0.00 0.00 0.00 45 1014.6
20260505193029 80 255 0.0 0.0 0.00 0.00 0.00 47 1014.7
20260505192527 80 250 3.5 3.5 0.00 0.00 0.00 44 1014.8
20260505192024 79 317 3.5 3.5 0.00 0.00 0.00 43 1014.9
20260505191517 79 317 3.5 3.5 0.00 0.00 0.00 43 1014.9
20260505191014 79 274 1.7 2.6 0.00 0.00 0.00 40 1015.0
20260505190509 78 330 2.6 2.6 0.00 0.00 0.00 43 1015.0
20260505190004 79 257 0.0 0.0 0.00 0.00 0.00 39 1015.2
20260505185456 80 238 0.0 0.0 0.00 0.00 0.00 37 1015.3
20260505184952 79 296 1.7 3.5 0.00 0.00 0.00 40 1015.3
20260505184449 78 281 0.9 1.7 0.00 0.00 0.00 49 1015.3
20260505183945 78 281 0.9 1.7 0.00 0.00 0.00 49 1015.3
20260505183443 79 323 1.7 2.6 0.00 0.00 0.00 44 1015.2
20260505182939 79 281 0.9 2.6 0.00 0.00 0.00 45 1015.2
20260505182437 79 267 0.0 0.0 0.00 0.00 0.00 51 1015.2
20260505181932 79 299 1.7 2.6 0.00 0.00 0.00 45 1015.6
20260505181430 78 301 0.0 0.9 0.00 0.00 0.00 45 1015.4
20260505180927 78 337 0.0 0.0 0.00 0.00 0.00 48 1015.6
20260505180423 78 359 0.9 2.6 0.00 0.00 0.00 46 1015.3
20260505175920 79 258 0.0 0.0 0.00 0.00 0.00 51 1015.3
20260505175416 78 215 0.9 1.7 0.00 0.00 0.00 55 1015.3
20260505174913 78 280 0.0 0.9 0.00 0.00 0.00 51 1015.7
20260505174410 78 341 3.5 5.2 0.00 0.00 0.00 47 1015.8
20260505173907 78 290 2.6 3.5 0.00 0.00 0.00 48 1016.0
20260505173403 77 255 0.9 1.7 0.00 0.00 0.00 48 1016.2
20260505172900 77 191 0.0 0.0 0.00 0.00 0.00 53 1016.6
20260505172358 77 191 0.0 0.0 0.00 0.00 0.00 53 1016.6
20260505171857 76 225 0.0 0.0 0.00 0.00 0.00 49 1016.5
20260505171354 76 268 0.0 0.9 0.00 0.00 0.00 50 1016.6
20260505170850 78 307 0.9 1.7 0.00 0.00 0.00 47 1016.6
20260505170348 77 93 0.0 0.0 0.00 0.00 0.00 50 1016.7
20260505165843 76 257 1.7 2.6 0.00 0.00 0.00 49 1016.7
20260505165339 76 257 1.7 2.6 0.00 0.00 0.00 49 1016.7
20260505164835 76 279 5.2 6.1 0.00 0.00 0.00 52 1016.7
20260505164332 75 239 3.5 7.0 0.00 0.00 0.00 50 1016.8
20260505163830 76 290 0.9 1.7 0.00 0.00 0.00 55 1016.7
20260505163328 76 287 0.0 0.9 0.00 0.00 0.00 54 1016.8
20260505162827 75 180 0.0 0.0 0.00 0.00 0.00 52 1016.8
20260505162322 75 333 0.0 0.0 0.00 0.00 0.00 52 1016.7
20260505161820 74 310 0.0 0.9 0.00 0.00 0.00 54 1016.8
20260505161317 73 327 0.9 1.7 0.00 0.00 0.00 60 1016.5
20260505160814 73 327 0.9 1.7 0.00 0.00 0.00 60 1016.5
20260505160312 73 236 0.0 0.0 0.00 0.00 0.00 62 1016.5
20260505153250 70 343 0.9 1.7 0.00 0.00 0.00 64 1017.1
20260505152747 69 265 0.0 0.0 0.00 0.00 0.00 65 1017.1
20260505152244 69 301 1.7 1.7 0.00 0.00 0.00 67 1017.3
20260505151738 69 266 0.0 0.0 0.00 0.00 0.00 67 1017.0
20260505151236 68 3 0.0 0.0 0.00 0.00 0.00 66 1016.9
20260505150732 68 3 0.0 0.0 0.00 0.00 0.00 66 1016.9
20260505150229 67 320 0.0 0.0 0.00 0.00 0.00 70 1016.9
20260505140310 61 283 0.0 0.0 0.00 0.00 0.00 77 1017.4
20260505130234 54 268 0.0 0.0 0.00 0.00 0.00 88 1017.1
20260505124602 51 268 0.0 0.0 0.00 0.00 0.00 95 1016.6
20260505124058 51 268 0.0 0.0 0.00 0.00 0.00 95 1016.6
20260505123554 51 268 0.0 0.0 0.00 0.00 0.00 96 1016.7
20260505123051 50 268 0.0 0.0 0.00 0.00 0.00 96 1016.6
20260505122548 50 268 0.0 0.0 0.00 0.00 0.00 96 1016.6
20260505122045 50 269 0.0 0.0 0.00 0.00 0.00 96 1016.4